Weather History for St. Petersburg, FL

Change the Weather History Date:

Saturday, June 15, 2013

  Actual Average Record
Temperature  
Mean Temperature 84 °F -  
Max Temperature 88 °F 89 °F 98 °F (1964)
Min Temperature 81 °F 74 °F 67 °F (1955)
Cooling Degree Days 20    
Growing Degree Days 34 (Base 50)    
Moisture  
Dew Point 75 °F    
Average Humidity 75    
Maximum Humidity 82    
Minimum Humidity 67    
Precipitation  
Precipitation 0.00 in - - ()
Sea Level Pressure  
Sea Level Pressure 29.99 in    
Wind  
Wind Speed 7 mph (WNW)    
Max Wind Speed 17 mph    
Max Gust Speed -    
Visibility 10 miles    
Events      
Averages and records for this station are not official NWS values.
T = Trace of Precipitation, MM = Missing Value Source: NWS Daily Summary

Daily Weather History Graph

Daily Weather History Graph

Search for Another Location

Airport:

Trip Planner

Search our weather history database for the weather conditions in past years. The results will help you decide how hot, cold, wet, or windy it might be!

Date:

Astronomy

Jun. 15, 2013 Rise Set
Actual Time 6:34 AM EDT 8:27 PM EDT
Civil Twilight 6:07 AM EDT 8:54 PM EDT
Nautical Twilight 5:35 AM EDT 9:26 PM EDT
Astronomical Twilight 5:01 AM EDT 10:00 PM EDT
Moon 12:37 PM EDT (6/15) 12:30 AM EDT (6/15)
Length of Visible Light 14h 46m
Length of Day
13h 53m
Waxing Crescent, 39% of the Moon is Illuminated
Jun 15
Waxing Crescent
Jun 16
First Quarter
Jun 23
Full
Jun 30
Last Quarter
Jul 8
New

Hourly Weather History & Observations

Time (EDT) Temp. Heat Index Dew Point Humidity Pressure Visibility Wind Dir Wind Speed Gust Speed Precip Events Conditions
12:53 AM 82.9 °F 90.8 °F 75.9 °F 79% 29.94 in 10.0 mi West 8.1 mph - N/A   Clear
1:53 AM 82.9 °F 90.2 °F 75.0 °F 77% 29.93 in 10.0 mi West 9.2 mph - N/A   Clear
2:53 AM 82.9 °F 90.2 °F 75.0 °F 77% 29.93 in 10.0 mi West 6.9 mph - N/A   Clear
3:53 AM 82.9 °F 90.2 °F 75.0 °F 77% 29.92 in 10.0 mi West 8.1 mph - N/A   Clear
4:53 AM 82.0 °F 88.6 °F 75.0 °F 79% 29.93 in 10.0 mi WNW 6.9 mph - N/A   Clear
5:53 AM 82.0 °F 88.6 °F 75.0 °F 79% 29.94 in 10.0 mi West 4.6 mph - N/A   Clear
6:53 AM 82.0 °F 89.4 °F 75.9 °F 82% 29.97 in 10.0 mi WSW 3.5 mph - N/A   Clear
7:53 AM 82.0 °F 89.4 °F 75.9 °F 82% 29.97 in 10.0 mi West 6.9 mph - N/A   Clear
8:53 AM 82.9 °F 90.8 °F 75.9 °F 79% 30.00 in 10.0 mi West 4.6 mph - N/A   Scattered Clouds
9:28 AM 82.9 °F 90.8 °F 75.9 °F 79% 30.00 in 10.0 mi WSW 3.5 mph - N/A   Mostly Cloudy
9:53 AM 82.9 °F 90.8 °F 75.9 °F 79% 30.01 in 10.0 mi NW 3.5 mph - N/A   Overcast
10:38 AM 84.0 °F 92.6 °F 75.9 °F 76% 30.01 in 10.0 mi West 8.1 mph - N/A   Mostly Cloudy
10:53 AM 84.0 °F 92.6 °F 75.9 °F 76% 30.02 in 10.0 mi West 9.2 mph - N/A   Scattered Clouds
11:53 AM 84.9 °F 92.1 °F 73.9 °F 69% 30.02 in 10.0 mi WNW 8.1 mph - N/A   Clear
12:35 PM 86.0 °F 95.1 °F 75.0 °F 70% 30.02 in 10.0 mi NNW 4.6 mph - N/A   Mostly Cloudy
12:53 PM 84.9 °F 94.1 °F 75.9 °F 74% 30.02 in 10.0 mi WNW 5.8 mph - N/A   Overcast
1:02 PM 84.9 °F 93.3 °F 75.0 °F 72% 30.02 in 10.0 mi NW 5.8 mph - N/A   Overcast
1:49 PM 86.0 °F 95.1 °F 75.2 °F 70% 30.01 in 10.0 mi WNW 4.6 mph - N/A   Overcast
1:53 PM 86.0 °F 95.1 °F 75.0 °F 70% 30.01 in 10.0 mi North - - N/A   Overcast
2:09 PM 86.0 °F 95.1 °F 75.0 °F 70% 30.01 in 10.0 mi SW 5.8 mph - N/A   Mostly Cloudy
2:53 PM 88.0 °F 98.5 °F 75.9 °F 67% 30.00 in 10.0 mi North - - N/A   Mostly Cloudy
3:44 PM 87.1 °F 97.3 °F 75.9 °F 69% 29.99 in 10.0 mi West 5.8 mph - N/A   Overcast
3:53 PM 87.1 °F 97.3 °F 75.9 °F 69% 29.99 in 10.0 mi West 6.9 mph - N/A   Mostly Cloudy
4:53 PM 87.1 °F 96.3 °F 75.0 °F 67% 29.97 in 10.0 mi West 8.1 mph - N/A   Partly Cloudy
5:53 PM 88.0 °F 98.5 °F 75.9 °F 67% 29.97 in 10.0 mi NNW 8.1 mph - N/A   Partly Cloudy
6:53 PM 87.1 °F 96.3 °F 75.0 °F 67% 30.00 in 10.0 mi North 8.1 mph - N/A   Scattered Clouds
7:53 PM 82.9 °F 90.8 °F 75.9 °F 79% 30.04 in 10.0 mi East 17.3 mph - N/A   Overcast
8:02 PM 82.9 °F 89.4 °F 73.9 °F 74% 30.03 in 10.0 mi ESE 16.1 mph - N/A   Mostly Cloudy
8:37 PM 81.0 °F 86.7 °F 75.0 °F 82% 30.02 in 10.0 mi SW 5.8 mph - N/A   Mostly Cloudy
8:53 PM 81.0 °F 86.7 °F 75.0 °F 82% 30.01 in 10.0 mi Calm Calm - N/A   Overcast
9:53 PM 82.0 °F 87.4 °F 73.0 °F 74% 30.03 in 10.0 mi ENE 9.2 mph - N/A   Overcast
10:53 PM 82.0 °F 89.4 °F 75.9 °F 82% 30.05 in 10.0 mi ESE 11.5 mph - N/A   Overcast
11:53 PM 82.0 °F 89.4 °F 75.9 °F 82% 30.05 in 10.0 mi ESE 9.2 mph - N/A   Overcast